Wind_Speed
17 19 20 21 22 22 23 24 24 24 24 23 22 21 19 19 19 19 19 19 19 20 22 23 23 23 24 24 25 25 25 26 26 26 27 26 26 26 25 25 25 25 26 26 26 27 27 26 25 24 24 24 24 24 24 24 23 23 22 22 22 21 21 20 20 19 19 19 19 18 18 18 18 19 19 20 22 23 24 24 25 25 24 24 23 22
17 19 19 20 21 22 23 25 25 24 24 24 24 23 22 21 21 21 21 21 20 21 22 23 24 25 26 26 27 27 27 28 28 28 28 27 27 26 25 25 25 25 25 26 26 26 26 26 25 24 24 25 25 25 25 24 24 24 23 23 22 22 21 21 20 20 19 19 19 19 19 19 20 20 21 22 23 24 24 24 24 24 24 23 22 21
18 18 19 20 20 22 23 25 25 24 24 24 24 24 23 23 23 24 23 23 22 22 23 24 25 26 27 28 28 28 29 29 29 29 28 27 26 26 25 25 25 25 25 25 25 26 26 25 24 24 24 25 25 25 25 25 24 24 23 23 23 23 23 22 22 21 21 20 20 20 21 21 22 23 23 24 24 24 24 24 23 23 23 22 21 21
19 19 20 21 22 23 24 25 25 24 23 23 23 23 23 24 24 25 25 25 24 24 25 25 26 27 28 29 29 30 30 29 29 28 27 26 25 25 25 25 25 25 25 25 25 25 25 25 24 24 24 25 25 25 25 25 24 24 24 24 24 24 24 24 24 23 23 22 22 22 23 24 24 25 25 25 25 24 24 23 23 22 22 21 21 20
20 19 20 20 21 22 24 24 24 23 23 23 23 23 24 24 25 26 26 26 26 27 27 27 27 28 29 30 30 30 30 30 29 28 27 25 24 24 24 24 24 24 24 25 25 25 25 25 24 24 25 25 25 25 25 24 24 24 24 24 24 25 25 24 24 24 24 23 23 23 24 24 24 24 24 24 24 24 23 23 22 22 21 21 20 20
21 20 20 20 21 23 24 24 24 23 24 24 24 25 25 25 26 26 27 27 28 28 28 28 28 29 29 30 31 31 30 30 28 27 26 24 23 23 23 23 23 23 23 24 24 24 25 25 25 25 25 26 26 25 25 25 24 24 24 24 24 24 24 24 24 24 23 23 23 23 23 23 23 23 24 24 23 23 23 22 22 22 22 21 20 20
21 21 21 21 23 24 25 25 25 24 24 25 26 26 26 26 26 27 27 28 28 28 29 29 30 30 30 31 31 31 30 29 27 26 24 23 23 22 22 22 22 22 22 22 23 24 24 25 25 25 25 26 25 25 25 25 25 25 25 25 25 25 24 24 23 23 23 23 23 23 23 23 23 23 23 23 23 23 23 22 22 22 22 21 20 20
22 22 22 22 23 24 25 25 25 25 25 25 26 26 27 27 27 27 27 27 27 28 29 30 30 31 31 31 31 30 29 27 26 25 24 23 23 22 22 21 21 21 21 21 22 23 24 24 25 25 26 26 26 26 25 25 25 25 25 26 26 26 25 24 24 23 23 23 23 23 23 24 24 24 24 24 24 24 23 23 23 22 22 21 20 20
22 22 22 22 22 22 22 24 24 24 23 24 25 25 25 25 25 25 25 26 26 27 28 29 30 31 31 31 30 28 27 26 26 25 25 24 24 23 22 22 21 21 21 21 21 22 22 23 24 25 26 27 27 27 26 26 25 25 25 26 26 26 26 25 24 24 24 23 24 24 24 24 24 24 24 24 24 24 24 23 23 23 22 21 21 20
22 22 22 22 22 21 20 22 23 23 22 23 23 24 23 23 23 22 22 23 24 25 26 27 28 29 30 30 28 27 26 26 26 26 26 26 26 25 23 22 22 21 21 20 20 20 21 22 23 25 26 26 26 26 26 26 25 25 25 26 26 26 26 26 25 25 25 24 24 24 24 24 24 24 24 24 24 24 24 24 24 23 22 22 21 20
21 21 21 21 21 21 21 21 22 22 21 22 22 23 23 23 22 21 21 21 22 23 24 24 25 26 27 27 27 27 26 26 27 28 28 28 27 25 23 22 21 20 20 19 19 20 20 21 22 23 24 25 26 26 26 25 25 25 25 26 26 26 26 26 26 26 26 25 25 25 24 24 24 24 24 24 24 24 24 24 24 24 23 22 21 21
19 19 19 19 19 19 19 19 19 19 19 19 19 19 21 22 22 22 21 21 22 22 23 23 24 25 26 26 27 27 27 27 28 29 29 28 26 24 22 20 18 18 17 18 18 19 19 20 21 22 24 25 25 26 26 26 26 26 26 26 26 26 26 26 26 26 26 26 26 25 25 25 24 24 24 24 24 24 24 24 24 23 23 22 22 21
19 18 18 19 19 18 18 17 17 17 17 16 16 16 17 19 20 21 21 23 23 23 23 24 25 26 27 27 27 27 28 29 29 29 28 27 24 21 19 18 17 16 16 17 17 18 18 19 20 21 22 24 25 25 26 27 27 27 27 27 27 27 27 27 27 27 27 26 26 26 25 25 24 24 24 24 24 24 24 24 23 23 22 22 21 21
18 18 17 18 18 18 18 17 17 17 16 17 17 18 19 19 19 20 21 22 23 23 23 24 24 25 26 27 27 27 27 27 27 26 25 24 21 19 18 18 18 17 17 18 19 19 18 19 20 21 21 22 23 25 26 27 27 28 28 28 28 27 27 27 27 27 27 27 26 26 25 25 25 24 24 24 24 24 24 23 23 22 22 21 21 21
18 17 16 15 16 17 17 17 17 17 18 18 19 19 20 20 20 20 19 20 21 21 21 22 23 24 24 25 25 24 23 22 22 23 23 22 20 18 18 20 21 20 20 21 22 22 20 20 21 22 22 22 23 24 25 26 27 27 28 28 28 27 27 27 27 27 27 26 26 26 25 25 25 24 24 24 24 24 23 22 22 22 21 21 21 21
18 17 16 16 17 18 19 18 18 18 19 19 18 19 19 19 19 18 18 19 20 19 17 18 18 19 21 20 18 16 16 18 20 21 22 22 21 20 20 21 22 23 23 24 25 25 24 23 23 23 24 24 24 24 25 25 26 27 27 27 27 26 26 26 26 26 26 26 26 26 25 25 25 24 24 24 23 23 22 22 22 22 21 21 21 21
19 18 17 17 18 19 21 20 20 20 19 18 19 19 19 19 18 18 18 18 17 16 15 14 10 9 13 18 18 14 13 15 17 18 18 20 22 22 22 22 23 24 25 26 27 27 26 26 26 26 26 26 26 25 25 25 26 26 26 25 25 25 25 25 25 25 25 26 26 26 25 25 25 24 24 23 23 22 22 22 22 22 21 21 20 20
17 17 17 18 19 20 20 20 19 19 19 18 19 20 21 21 21 20 19 18 17 15 15 14 12 8 8 14 17 15 13 15 16 17 17 21 24 25 24 24 25 26 27 27 28 29 28 28 28 28 28 28 27 27 26 26 26 26 25 25 24 24 24 24 25 25 25 26 26 26 25 25 24 24 23 23 22 22 22 22 22 22 21 20 20 19
19 18 17 17 18 19 19 19 18 17 17 18 18 19 20 22 22 21 21 20 19 18 17 16 16 15 14 17 20 20 17 19 21 21 20 23 25 26 26 25 25 27 27 29 30 30 30 29 29 29 29 29 28 28 27 27 27 26 26 25 25 24 24 25 25 25 26 26 26 26 25 25 24 23 23 22 22 22 22 22 22 21 20 20 19 19
21 21 21 21 20 19 19 18 18 17 17 17 18 18 19 19 20 20 20 20 19 19 19 18 18 18 19 21 22 22 20 20 22 23 20 22 24 25 25 24 24 26 27 29 30 31 30 30 30 30 30 30 29 28 28 27 27 26 26 26 25 25 25 25 26 26 26 26 26 26 25 24 24 23 23 22 22 22 22 22 22 21 20 19 19 19
23 24 24 22 21 21 21 21 19 19 18 18 18 17 17 17 17 17 18 18 19 19 19 18 19 21 21 23 24 24 23 23 24 23 20 20 22 23 23 22 23 25 27 29 30 31 30 30 30 30 31 31 30 29 28 27 26 26 26 26 26 26 26 26 27 27 27 26 26 25 25 24 23 23 23 22 22 22 22 22 21 20 19 19 19 19
24 25 26 24 23 23 23 23 23 22 21 20 20 19 17 16 16 17 18 17 17 18 18 19 22 25 26 28 29 30 29 28 27 25 21 19 22 24 23 22 23 24 25 27 29 31 30 30 31 31 32 32 31 29 28 27 26 26 26 26 26 27 27 27 27 27 27 26 25 25 24 24 23 22 22 22 22 22 22 21 20 19 19 19 19 19
25 26 26 26 25 25 25 25 24 24 24 23 23 22 21 19 20 20 20 19 19 20 21 23 26 28 30 31 32 32 32 30 29 26 21 16 19 24 23 22 23 23 24 26 29 30 31 31 31 32 32 32 31 30 29 27 27 26 26 26 26 27 27 27 27 27 27 26 25 24 23 23 22 22 22 22 22 22 22 21 20 19 19 19 19 19
25 26 27 26 26 26 26 26 27 27 27 27 26 26 25 25 26 26 26 25 25 25 26 27 27 27 28 28 28 29 30 29 28 26 21 17 19 23 23 22 22 23 25 27 28 28 29 30 31 32 32 33 32 31 29 28 27 26 26 26 27 27 27 28 28 27 26 25 24 23 23 22 22 22 22 22 22 21 21 20 20 19 20 19 19 18
26 26 26 27 27 27 27 27 27 28 28 28 28 28 28 28 28 28 28 28 27 27 26 24 22 21 21 20 21 23 25 25 25 24 21 18 19 23 23 22 21 22 24 25 25 26 27 29 31 32 32 33 32 31 30 29 28 27 26 27 27 27 27 28 27 26 25 24 23 22 22 22 22 22 22 21 21 21 20 20 20 20 19 19 18 18
26 27 28 29 30 30 31 31 31 30 30 30 30 29 29 29 28 28 26 25 24 22 21 18 17 17 19 18 18 20 21 21 22 23 22 19 18 21 22 21 21 22 23 22 22 24 26 28 30 31 32 33 33 32 30 29 28 27 27 27 27 27 27 27 26 25 23 22 22 21 21 21 21 21 21 21 20 20 20 20 20 20 19 18 18 18
28 29 31 31 32 33 33 33 33 33 33 32 32 32 32 31 29 26 23 20 19 18 17 14 11 13 17 17 19 20 20 20 21 23 23 21 18 18 20 20 21 22 22 21 21 23 26 28 30 31 32 34 33 32 31 30 29 28 27 27 27 27 26 25 24 23 22 21 21 21 20 20 20 20 20 20 20 20 19 20 20 20 19 18 18 19
29 30 31 32 33 33 34 34 34 33 33 33 33 33 33 31 28 25 22 20 18 17 17 13 9 8 10 14 19 22 22 22 22 23 22 20 16 15 19 20 21 21 19 19 21 24 26 28 29 31 32 32 32 31 30 29 27 26 26 26 26 25 25 24 22 21 21 20 20 20 20 19 19 19 19 19 19 19 19 19 20 19 19 19 19 20
30 31 32 32 33 34 34 34 33 32 32 32 32 32 31 30 28 26 25 24 22 20 19 18 16 13 13 16 20 22 22 22 23 23 22 19 16 16 19 19 20 20 17 16 17 20 23 25 27 28 29 29 29 28 26 25 24 23 23 23 24 24 23 22 21 20 20 19 19 18 18 18 18 18 18 18 18 18 19 19 19 19 19 19 20 21
29 30 31 31 31 31 31 31 31 31 31 32 32 32 31 31 30 30 29 28 25 22 22 22 21 20 19 17 14 13 17 21 23 22 22 18 15 15 18 19 21 20 15 11 9 9 13 17 20 22 23 22 21 20 19 19 20 20 20 20 20 20 20 20 20 19 18 17 17 17 17 17 18 18 18 17 17 17 18 18 18 19 19 20 20 21
29 29 29 29 29 28 28 29 29 30 31 32 33 33 32 31 31 31 31 30 28 25 25 23 22 22 21 12 6 4 7 16 19 20 21 19 16 15 17 17 19 20 16 10 3 1 4 7 9 12 14 14 13 12 12 14 15 16 16 16 16 17 17 17 17 17 17 17 17 17 17 17 17 17 17 16 16 17 17 17 17 18 18 19 20 20
29 29 29 28 28 27 28 29 30 30 31 32 32 32 31 30 30 31 31 31 29 27 26 24 23 22 21 16 11 8 10 14 16 17 18 18 17 17 16 17 18 19 18 15 11 6 3 3 4 7 12 13 12 11 10 11 12 13 13 13 13 13 13 14 15 16 16 17 18 18 18 18 17 16 16 15 16 16 16 17 17 17 17 18 19 20
31 30 30 29 28 28 29 29 29 30 30 30 30 30 31 30 30 30 30 30 30 29 27 25 23 22 21 22 20 19 20 20 17 15 16 17 15 14 14 16 17 17 16 16 17 15 10 8 9 12 15 17 16 14 13 13 13 13 13 12 12 12 12 13 14 15 16 17 18 18 19 19 18 17 16 15 15 15 16 16 16 16 16 17 18 19
31 30 28 27 27 28 29 29 30 30 30 30 30 31 31 30 30 30 30 30 30 29 27 24 23 23 21 20 20 21 22 21 18 16 16 17 15 13 12 15 17 16 13 13 15 16 15 16 16 16 16 18 18 16 15 14 14 14 14 14 13 13 13 14 15 16 17 17 18 18 19 19 18 18 17 16 16 16 16 16 16 16 16 16 17 19
26 25 25 26 27 28 30 30 31 31 31 30 29 30 30 31 31 31 31 31 31 31 29 28 27 25 23 21 19 19 20 20 19 17 17 19 19 17 15 16 17 16 13 13 13 12 12 15 18 17 15 16 17 17 15 15 15 16 16 16 16 16 16 16 17 17 18 18 18 18 18 18 18 18 17 17 17 17 17 17 17 16 16 17 17 18
23 25 26 27 28 29 30 30 30 30 29 29 28 28 29 30 31 32 32 32 32 32 32 32 31 29 28 27 25 24 24 24 22 21 21 21 22 21 17 17 18 18 16 16 15 13 11 13 16 17 15 13 14 15 16 15 15 16 16 17 17 17 18 18 18 18 19 19 19 19 18 18 18 17 17 17 18 18 18 18 18 17 17 17 17 18
25 26 27 27 28 29 30 30 29 28 28 27 27 27 27 28 29 30 30 31 32 32 33 33 32 32 32 31 30 30 30 29 27 26 25 25 25 23 21 20 20 20 19 18 17 16 14 12 12 13 13 13 12 12 14 14 14 15 16 16 16 17 17 17 18 18 19 19 20 20 20 19 19 18 18 18 18 18 18 19 19 18 18 18 18 18
25 26 28 28 29 29 30 29 28 27 27 28 28 28 27 27 27 28 29 31 32 32 32 32 32 32 32 32 33 33 33 32 31 30 30 29 28 27 25 23 22 22 22 22 20 18 15 11 7 6 6 11 14 15 14 13 13 14 15 15 16 16 17 17 18 18 19 19 20 20 20 19 18 18 17 17 17 17 18 18 18 18 18 18 18 18
25 27 28 28 27 27 28 28 28 27 28 29 30 30 29 29 29 29 29 31 32 33 33 33 32 31 31 32 34 35 35 34 34 33 33 33 32 31 29 26 24 24 24 24 23 21 18 13 10 6 5 8 11 14 14 14 14 14 15 15 16 17 18 17 17 17 17 18 18 18 17 17 16 16 16 15 15 16 16 16 17 16 16 17 18 18
26 27 28 28 26 25 26 27 28 28 29 30 31 32 31 30 29 29 30 31 32 32 32 32 32 31 32 33 34 35 35 35 35 35 34 34 34 33 31 29 27 25 24 24 23 22 19 17 16 16 15 12 11 12 12 14 14 14 13 13 14 15 16 15 15 15 16 16 16 16 15 15 15 14 14 14 15 15 16 16 16 16 16 16 17 18
29 29 30 30 29 29 29 30 30 30 30 31 31 30 29 29 28 27 30 31 31 30 30 29 29 30 31 33 34 35 36 37 36 35 35 35 35 34 34 32 29 27 24 22 22 22 21 19 18 17 17 16 15 15 15 15 15 14 14 13 13 14 15 15 15 15 15 15 14 14 14 14 14 14 15 15 16 16 17 17 18 18 17 17 17 17
30 30 31 31 30 30 31 31 31 31 31 30 29 28 28 28 28 28 28 28 27 26 27 26 26 26 27 28 31 33 35 36 37 36 36 35 35 35 35 33 31 28 24 22 21 21 21 20 19 18 17 16 16 15 15 16 16 16 15 15 15 15 15 15 15 14 13 13 13 12 12 13 14 15 16 17 18 19 19 19 19 19 18 17 17 17
29 29 30 30 30 30 31 31 30 30 29 29 28 28 29 29 30 30 29 26 23 23 23 23 24 24 24 24 26 29 32 34 35 35 35 35 35 35 35 34 32 29 25 22 20 19 20 20 20 19 18 17 16 15 15 16 16 16 16 16 14 12 10 12 12 12 11 12 12 12 13 14 16 17 19 20 21 22 21 20 19 18 17 16 16 16
28 28 29 29 30 30 29 28 28 28 28 28 28 29 30 30 30 29 26 24 23 22 22 23 23 23 22 23 23 24 26 29 30 31 32 32 33 33 33 32 31 29 27 23 20 18 18 18 19 19 18 17 16 16 16 16 16 16 16 15 15 13 12 12 12 12 12 13 14 14 16 17 18 20 21 21 22 21 20 19 17 16 16 15 15 15
27 27 28 28 28 27 26 26 26 26 26 27 27 28 29 29 27 25 23 23 23 24 24 24 23 20 18 20 20 20 21 23 25 26 28 29 29 30 30 30 29 28 27 26 24 21 18 17 17 17 17 17 16 16 16 16 16 16 15 15 15 15 16 16 15 15 15 16 16 17 18 19 20 20 20 20 20 19 18 16 16 15 15 14 15 15
25 25 25 25 24 23 24 24 25 25 25 25 26 26 27 26 24 23 23 22 22 24 25 25 22 18 16 17 18 17 17 17 19 21 23 25 26 27 27 28 28 27 27 26 26 24 22 19 17 16 14 14 15 16 17 16 15 15 15 15 14 14 16 16 16 17 17 17 18 19 20 19 18 18 17 17 17 17 17 16 16 16 16 16 16 17
23 23 23 23 23 22 22 23 24 24 24 24 24 24 25 24 24 23 24 24 24 23 23 23 22 20 19 20 18 16 14 14 15 17 19 21 23 24 25 26 26 26 25 25 25 24 23 22 20 17 14 13 12 14 15 16 15 15 15 15 14 14 14 15 16 17 17 18 19 19 19 17 16 15 16 16 17 17 17 17 17 17 17 17 17 18
25 24 25 25 25 25 25 23 23 23 24 24 24 25 25 24 24 24 25 24 24 23 21 20 19 19 20 21 20 18 16 15 16 16 16 18 19 21 22 23 24 24 23 23 22 22 22 22 21 20 18 15 13 13 14 14 14 14 15 14 14 14 14 15 16 17 18 19 19 18 16 15 14 14 15 15 16 16 17 18 18 18 18 18 18 19
26 26 27 27 26 26 25 24 24 24 25 25 25 24 24 24 24 24 24 24 23 22 20 19 19 18 19 20 21 19 18 17 16 16 16 16 17 18 19 20 21 20 20 20 20 19 20 20 20 20 20 18 17 15 15 15 14 14 14 14 14 14 14 15 17 18 18 18 17 16 14 13 13 14 14 14 15 16 17 18 19 19 18 18 18 19
26 26 27 26 26 26 26 26 26 26 26 25 24 23 23 23 23 23 23 23 23 22 21 21 20 19 19 20 20 20 18 16 16 16 16 16 16 16 17 17 17 17 15 15 15 15 15 15 17 19 20 20 19 18 17 16 15 14 13 14 14 14 15 16 17 18 17 16 15 14 12 12 12 12 13 13 14 16 18 19 19 19 19 18 18 18
26 26 26 26 25 26 26 27 26 25 24 23 23 22 22 22 22 21 22 21 21 22 22 22 21 20 19 19 19 20 18 18 16 16 17 16 16 15 16 16 15 14 12 10 9 8 7 7 8 12 16 18 19 18 18 17 15 13 12 13 14 14 15 16 16 16 15 14 13 12 11 11 12 12 13 13 14 15 17 18 19 19 18 17 16 17
Wind_Direction
283 286 289 290 291 292 293 295 297 299 301 304 306 307 307 304 302 300 298 296 294 294 294 295 295 295 295 295 295 295 296 297 298 298 299 299 299 299 297 296 293 291 289 288 286 285 284 283 282 280 278 277 277 277 277 277 275 273 271 270 269 269 268 268 268 268 267 266 266 265 264 263 260 258 255 254 254 255 257 260 263 267 270 273 275 277
286 288 289 290 290 290 290 293 295 296 298 301 303 304 305 303 301 299 298 296 294 292 292 292 293 293 293 293 293 294 295 296 297 298 299 299 299 298 297 295 292 290 287 285 283 282 282 281 280 278 276 276 276 277 277 277 275 273 271 270 269 268 268 269 269 268 267 265 264 262 261 258 255 253 252 252 253 255 257 261 264 267 270 272 274 276
288 288 287 287 287 286 286 288 291 292 293 295 297 299 299 298 297 296 296 295 293 291 289 288 288 289 289 290 291 292 293 294 296 297 298 298 298 298 296 294 292 288 285 282 280 280 280 279 278 276 275 275 275 276 277 276 275 274 272 270 269 268 268 269 269 269 268 265 262 259 257 254 253 252 253 254 256 258 260 263 266 268 270 272 274 275
284 284 284 284 283 282 281 283 286 287 287 288 289 290 291 290 290 291 292 292 290 288 286 285 284 284 285 286 288 289 291 293 294 295 296 297 297 296 295 293 291 287 284 281 279 278 278 278 276 275 274 274 275 276 276 276 275 274 272 271 270 269 269 269 270 270 269 267 264 260 258 257 256 256 257 258 260 262 264 266 268 269 271 272 273 273
277 277 279 280 280 279 278 279 281 281 282 281 281 281 282 282 284 286 288 288 286 284 283 282 282 282 283 284 286 287 289 291 293 294 295 295 295 295 294 293 290 287 284 280 278 277 276 276 275 274 274 275 276 276 277 276 275 273 272 272 271 271 270 270 271 272 272 271 269 266 265 264 263 263 264 264 265 266 267 268 269 270 271 272 272 273
271 272 273 273 273 274 275 276 277 277 277 276 276 275 276 277 278 280 281 282 282 282 282 281 281 281 282 283 284 286 288 290 291 292 293 294 294 294 293 292 291 288 284 280 277 276 275 274 274 274 274 274 275 276 276 275 273 272 271 272 272 271 270 270 270 271 272 272 271 270 270 270 270 270 270 270 271 271 271 271 272 272 272 272 273 272
269 269 269 268 269 270 272 273 273 273 274 274 274 274 273 273 273 274 275 277 278 279 280 280 280 280 281 282 284 286 288 289 290 291 291 292 293 293 293 292 291 289 285 281 277 274 272 271 271 271 272 272 273 273 274 273 272 271 270 271 271 271 270 269 269 269 269 270 270 270 271 272 273 273 274 274 275 275 274 274 274 274 274 273 273 272
268 269 267 267 268 270 270 270 270 270 271 271 272 273 273 272 271 270 271 272 273 274 276 277 278 279 280 282 284 286 287 288 288 289 290 291 292 292 292 291 289 288 285 282 278 274 272 270 270 270 270 271 272 272 273 272 272 271 270 270 270 270 270 269 268 268 268 268 268 269 270 271 272 273 274 274 275 275 275 275 275 275 275 274 273 272
265 268 268 267 267 269 271 271 270 270 269 269 269 269 270 270 270 270 269 269 269 270 272 274 277 279 281 283 285 286 287 287 287 289 290 291 293 293 292 290 287 285 283 281 279 277 274 273 271 271 271 271 272 273 274 274 273 272 271 270 270 270 270 269 268 267 267 266 267 267 269 270 270 271 272 272 273 273 274 275 275 275 275 273 272 271
263 265 268 268 267 267 268 270 271 271 270 269 268 267 266 266 268 270 270 269 269 270 271 273 275 278 282 284 286 286 286 287 287 288 290 292 294 294 293 290 287 284 281 280 279 278 277 276 275 274 273 274 274 275 275 275 274 273 272 271 271 270 270 269 268 268 267 267 267 267 268 269 269 269 269 269 270 271 272 273 274 274 274 272 271 271
265 265 267 269 269 267 265 267 270 271 270 268 266 264 262 261 263 266 270 271 272 273 273 273 275 277 280 283 285 286 285 286 287 288 290 292 293 293 292 289 286 283 282 281 280 279 279 278 278 277 277 276 276 276 276 275 275 274 273 272 272 271 271 271 270 269 269 269 268 268 268 268 268 268 268 268 268 269 271 272 273 273 273 272 270 270
266 267 268 269 270 269 268 268 268 269 267 264 262 260 258 258 259 261 264 269 273 275 277 277 277 276 277 280 282 283 284 284 286 288 290 291 291 291 290 288 285 284 283 282 282 281 281 281 280 280 279 278 278 277 277 276 276 275 274 274 273 273 273 272 272 272 271 271 270 270 269 268 268 267 267 267 268 269 270 271 272 272 272 271 270 269
266 268 269 269 269 268 268 269 269 267 261 256 253 254 258 260 260 261 262 265 269 273 276 278 278 278 278 278 279 280 282 284 286 289 290 289 289 290 290 288 287 287 286 286 284 283 283 284 283 282 281 280 280 279 279 278 277 277 276 276 275 275 275 274 274 273 273 273 272 272 270 269 268 267 267 267 267 269 269 270 270 270 270 269 269 269
269 269 269 269 268 267 267 266 266 264 259 253 251 254 260 263 264 264 264 265 268 272 275 277 277 278 279 279 279 280 282 284 286 286 286 286 287 289 291 289 289 289 289 288 286 285 286 287 286 285 285 285 284 283 283 281 280 279 278 277 277 276 276 276 275 275 274 274 274 273 272 270 269 267 267 267 268 269 269 269 269 269 268 268 268 268
270 271 270 268 268 268 267 265 264 262 260 258 257 259 261 263 263 263 263 266 270 274 277 277 278 279 279 279 282 284 285 283 280 279 279 282 286 289 290 290 289 288 289 288 287 287 288 288 288 288 289 289 289 289 288 286 284 282 280 279 278 277 277 276 275 275 274 274 274 274 273 271 270 268 268 268 268 268 268 268 268 268 268 268 268 269
270 271 269 270 270 270 269 268 265 264 264 264 262 261 261 261 261 261 261 265 272 276 277 279 282 283 283 283 284 285 284 279 273 271 274 280 284 288 290 289 288 287 288 288 288 289 290 289 289 289 290 291 291 292 291 289 287 285 282 280 279 277 276 275 274 273 273 273 274 274 273 272 271 270 269 268 268 268 267 267 267 268 269 269 269 269
268 268 268 270 271 272 273 271 268 265 266 265 263 262 261 260 261 261 261 264 270 274 273 274 278 286 288 288 286 283 281 277 272 270 274 279 283 286 288 287 285 285 286 287 287 288 289 289 290 290 291 292 293 293 292 290 288 286 283 281 278 275 273 272 272 272 272 273 273 274 273 273 272 270 269 268 267 267 267 267 268 270 270 270 269 268
264 262 264 267 269 270 272 270 266 263 263 261 261 262 262 262 261 260 260 261 263 266 268 268 268 271 279 285 285 282 279 279 279 278 278 279 282 284 285 284 283 282 283 283 285 286 288 288 289 291 292 293 294 293 292 290 287 285 282 279 276 273 272 271 271 271 272 273 274 274 274 273 272 270 269 267 266 266 267 268 270 271 271 270 267 266
271 268 264 264 267 269 268 266 263 261 259 257 257 258 259 259 258 256 254 254 255 257 261 263 265 266 268 274 278 278 276 276 278 278 277 277 280 282 283 282 280 280 280 281 283 285 287 288 289 291 292 293 293 293 291 289 286 284 281 278 275 273 271 271 271 272 273 274 274 274 273 272 271 269 267 266 265 266 267 269 271 272 270 267 265 263
280 276 272 272 272 272 269 266 263 260 258 257 256 255 254 254 252 250 248 249 250 252 254 257 260 263 266 270 274 275 274 274 274 273 273 275 278 280 280 279 278 277 277 279 282 285 287 287 289 291 292 292 292 292 290 288 285 282 279 277 274 273 272 272 273 274 274 274 274 273 272 270 269 267 266 265 265 267 269 271 272 270 267 265 262 261
281 279 276 276 276 276 274 272 269 266 264 262 259 255 252 251 249 247 246 247 248 248 248 250 255 261 265 270 273 275 276 275 272 271 274 276 276 277 278 277 276 275 275 278 281 285 286 287 288 290 291 292 292 291 290 287 284 281 278 276 274 273 273 273 274 274 274 273 272 271 269 268 266 265 264 264 265 268 270 272 271 268 265 262 259 259
277 278 279 279 278 277 277 277 276 274 271 268 263 258 255 255 254 254 255 251 249 248 249 251 258 263 266 268 272 276 276 273 268 267 272 275 275 275 277 277 275 273 272 275 280 283 285 286 287 289 291 291 291 290 289 286 283 280 277 274 273 273 273 274 274 273 273 271 270 268 266 265 264 263 263 264 266 268 271 272 270 266 262 259 257 258
274 277 279 279 278 277 278 280 279 278 276 273 268 264 263 262 261 261 262 259 258 259 261 264 267 269 269 269 271 273 272 269 265 262 264 267 272 274 276 276 274 272 269 273 277 281 283 284 286 288 289 290 289 288 287 285 282 279 276 274 273 273 274 274 273 272 271 269 267 265 263 262 261 261 262 263 265 268 271 271 268 263 259 256 257 260
275 276 278 278 278 278 278 279 280 280 280 278 275 273 271 269 268 267 268 268 269 270 271 273 273 272 269 268 268 267 266 264 261 257 254 259 268 272 274 274 273 272 271 273 277 280 282 282 284 286 288 288 287 286 285 284 281 278 276 274 274 274 274 274 273 271 269 267 264 262 261 260 260 261 261 263 265 268 270 269 265 260 256 255 257 262
279 278 278 279 279 278 278 278 278 279 279 279 278 278 277 276 275 274 274 274 273 273 273 272 270 269 269 268 267 265 264 262 258 252 246 256 267 270 271 270 269 270 271 274 277 279 280 281 282 284 286 286 285 284 283 282 280 278 276 275 275 275 274 273 272 270 267 264 262 260 259 259 260 260 261 263 265 268 268 266 262 257 255 255 259 264
281 281 280 280 280 280 279 278 277 277 277 276 277 277 278 279 279 278 276 272 270 269 268 267 267 268 270 270 267 266 264 260 255 249 243 252 263 268 268 267 266 267 270 274 276 278 279 279 281 282 283 284 284 284 282 281 280 278 277 276 275 274 273 272 270 268 265 262 260 259 259 260 260 260 260 262 265 267 267 264 259 256 255 256 261 265
284 284 284 283 282 281 280 279 278 277 276 275 274 274 276 277 278 276 271 268 267 266 263 263 265 269 271 269 268 267 267 262 255 248 243 245 253 262 264 265 265 267 270 274 276 277 278 278 279 280 282 284 285 284 283 281 279 278 276 275 273 272 270 268 266 264 261 260 260 260 260 260 259 259 260 263 265 266 265 262 258 256 255 258 262 266
288 287 287 286 285 284 282 280 279 278 277 276 275 274 273 273 273 271 269 270 271 268 261 259 260 266 270 268 268 269 269 263 256 249 244 238 241 254 259 262 264 265 270 276 279 279 277 277 278 280 281 283 284 284 283 281 278 276 274 272 270 268 266 265 263 261 260 260 261 261 260 259 258 259 260 263 265 265 263 260 257 256 256 259 263 266
291 291 290 290 289 288 285 282 280 279 279 278 276 274 271 268 267 266 268 271 271 268 264 263 263 265 268 269 270 269 266 259 254 249 243 233 236 249 255 258 260 262 267 277 282 280 276 276 278 279 280 281 281 281 280 278 275 272 271 269 268 266 264 262 260 259 259 259 259 259 258 257 257 259 261 263 264 263 260 258 256 256 257 260 263 266
294 294 294 293 292 291 288 286 284 282 281 280 278 274 269 264 261 262 264 267 266 264 265 266 266 266 268 270 272 269 264 259 253 245 237 229 233 246 251 254 256 258 261 270 283 283 275 276 278 279 278 276 275 274 274 272 270 269 268 267 266 264 263 261 258 257 256 255 254 254 254 256 258 260 262 263 263 261 259 257 256 257 259 262 265 267
294 294 293 293 292 292 290 289 287 285 283 281 278 274 268 262 258 257 259 260 259 259 261 264 265 265 265 267 269 266 266 267 257 243 234 224 229 241 243 247 253 256 253 247 247 323 287 283 279 277 277 275 272 269 268 268 268 267 265 264 263 262 260 257 253 251 249 248 249 251 253 256 260 262 263 263 262 260 257 256 256 258 261 264 267 269
293 292 291 291 291 291 290 288 287 285 283 280 276 271 266 261 258 257 256 255 254 254 256 259 261 262 262 261 260 261 267 274 265 248 236 227 232 240 239 241 250 256 254 243 235 237 269 289 279 275 278 280 280 278 271 268 268 267 265 261 258 255 253 250 247 245 245 246 248 251 255 258 261 263 263 263 262 260 258 256 257 259 262 265 268 271
290 289 288 289 289 290 289 288 286 284 281 278 273 268 263 260 258 258 256 255 253 252 253 256 259 262 262 262 261 263 266 270 267 256 243 236 237 242 240 238 244 252 254 244 238 239 247 258 269 275 276 278 279 279 276 271 268 266 264 260 254 249 247 246 245 246 248 250 253 256 259 261 262 261 260 260 260 259 259 257 257 258 261 265 269 272
285 285 285 287 289 289 289 288 286 284 280 276 272 268 263 259 258 258 256 255 253 251 251 253 256 259 262 263 264 264 266 267 266 261 253 245 242 244 247 239 238 242 245 240 237 239 246 254 262 270 273 273 272 271 270 268 265 263 261 259 257 253 250 249 249 251 255 257 260 262 264 265 264 261 258 255 254 254 255 256 257 258 261 265 268 271
284 285 286 288 290 291 290 288 286 283 279 275 271 267 263 260 259 259 257 256 254 252 251 251 252 254 256 259 261 263 265 266 266 264 260 251 246 246 248 242 239 239 241 242 240 239 247 253 257 260 267 271 270 266 263 262 262 261 260 259 259 258 256 255 255 257 260 262 264 265 266 266 265 262 258 255 253 252 252 254 256 259 262 264 266 268
288 288 288 289 290 290 289 288 285 282 278 274 270 267 263 260 258 256 257 257 256 254 253 252 252 252 252 253 255 258 260 263 264 263 261 258 253 250 248 248 246 244 243 246 245 244 246 253 256 256 258 264 267 266 262 259 258 259 259 258 257 257 257 258 258 260 262 265 266 267 267 266 265 263 260 258 256 255 255 256 258 260 262 264 264 265
287 286 286 287 288 288 287 285 282 278 277 275 272 268 264 259 256 254 255 255 255 255 254 254 253 253 252 253 253 254 258 260 261 260 260 258 256 252 250 253 253 248 242 242 245 246 245 251 257 257 254 251 255 261 264 261 258 256 256 256 255 254 255 258 261 263 266 268 270 269 268 268 267 265 263 262 260 260 259 259 259 260 261 262 262 262
283 283 284 284 285 285 283 280 277 276 277 276 275 273 268 262 259 257 256 255 255 254 252 253 253 252 253 254 254 256 258 259 259 258 257 256 255 252 250 252 252 249 245 242 243 244 243 245 250 254 252 249 251 254 258 259 258 256 256 256 256 255 257 261 264 268 270 272 272 272 270 270 269 268 267 266 265 265 264 263 263 262 261 261 260 259
281 282 283 283 282 280 278 275 275 277 278 277 276 274 271 267 264 262 259 257 255 253 252 251 252 253 254 255 256 257 257 257 257 256 255 255 253 251 249 248 248 248 246 244 242 242 240 240 241 244 250 255 255 255 256 257 257 257 258 261 263 264 264 267 270 272 275 276 275 273 272 272 272 272 272 272 271 270 270 269 268 267 266 265 264 261
282 282 282 282 280 277 276 276 278 280 280 278 276 274 272 269 268 265 262 259 256 253 252 252 252 254 255 256 256 256 257 257 256 255 253 253 252 251 249 247 247 247 246 243 241 240 238 239 242 244 248 254 258 260 260 259 257 257 259 263 267 269 271 273 275 277 279 278 276 274 273 274 275 276 276 275 274 273 273 274 274 274 273 272 272 270
279 280 280 280 279 277 277 278 280 281 280 279 277 275 273 271 269 266 263 259 255 253 252 251 252 254 255 255 256 256 256 255 254 252 251 251 251 251 250 248 247 246 243 241 239 238 236 237 240 243 245 249 255 260 261 260 259 259 259 260 264 269 274 276 277 277 278 276 274 272 272 274 275 276 275 275 274 275 276 278 279 279 277 274 273 273
276 276 277 277 276 275 275 277 278 278 278 278 277 276 274 271 269 265 260 256 252 250 250 250 251 253 255 256 257 257 256 255 253 251 250 250 250 251 251 249 247 244 241 237 235 234 234 235 237 239 241 245 250 257 260 261 260 259 257 258 263 271 277 276 274 273 272 269 268 268 269 271 273 275 275 276 277 277 278 279 279 279 278 275 273 271
273 273 274 274 274 274 274 275 275 275 275 275 274 273 272 269 265 260 256 252 250 250 250 251 253 255 255 257 257 257 256 255 253 252 250 250 250 250 250 249 246 242 238 234 231 231 233 235 236 237 240 242 245 251 257 261 261 259 257 257 260 266 273 274 273 271 267 264 264 265 268 272 275 278 279 280 280 281 280 279 277 276 275 275 274 273
269 270 271 272 271 271 271 270 271 271 272 272 271 270 268 264 260 255 251 251 252 253 254 255 256 255 253 254 254 254 254 254 254 252 250 250 250 249 249 248 245 242 238 232 228 229 231 233 235 236 238 240 243 247 253 257 260 260 258 258 256 255 256 264 269 269 266 264 266 269 274 279 283 285 285 284 283 282 281 279 276 273 272 272 273 275
265 266 267 267 266 265 264 265 267 268 269 268 267 266 265 261 257 253 251 253 256 258 258 258 257 254 250 251 252 251 251 251 251 250 249 249 248 247 246 245 243 241 239 235 231 228 226 230 234 238 240 240 241 243 248 253 257 259 259 258 257 255 255 260 263 264 264 267 271 276 282 287 290 290 288 287 286 285 284 282 280 277 275 275 276 277
264 264 264 263 263 263 264 265 267 268 267 266 266 266 265 263 260 258 256 256 257 258 258 256 253 251 249 250 249 248 246 244 244 245 245 244 243 242 242 241 241 239 237 235 234 232 230 231 234 237 238 239 241 242 245 248 252 256 259 259 259 258 259 260 260 261 264 270 276 282 288 292 293 290 287 287 288 289 289 286 284 283 282 282 281 281
267 266 267 269 271 273 272 272 272 271 270 268 268 268 267 266 264 262 261 259 257 256 255 253 250 247 247 249 248 245 240 236 235 236 237 237 237 236 236 236 237 237 236 234 233 233 234 234 235 236 236 238 242 246 248 248 249 251 254 257 258 258 257 258 261 264 269 275 281 288 293 294 291 287 286 288 290 291 291 289 287 286 286 286 286 284
270 271 273 276 278 278 278 276 274 273 273 272 271 270 268 266 264 263 261 258 256 255 254 251 248 246 247 248 247 243 238 233 232 232 231 230 230 230 230 230 230 231 232 232 233 234 235 237 238 238 238 238 243 250 253 252 249 248 251 254 255 256 258 261 265 270 276 281 286 290 293 291 288 286 289 292 292 291 290 289 289 288 288 287 286 285
270 272 274 275 276 276 275 275 274 274 274 273 271 269 267 265 262 260 259 257 256 255 252 250 247 246 247 248 247 244 239 235 232 231 229 227 224 222 221 221 222 222 224 227 230 233 237 240 243 244 245 243 244 248 254 255 253 251 251 253 255 258 262 267 272 277 281 285 288 290 291 290 289 290 293 292 291 290 289 289 288 288 287 286 285 284
269 270 271 271 271 271 271 272 272 271 270 268 267 267 267 265 261 258 257 257 256 255 253 250 247 246 246 247 246 243 237 233 230 229 228 224 219 214 210 211 211 211 214 219 225 231 237 244 248 250 251 249 247 246 249 253 255 254 255 256 259 263 268 272 277 280 283 285 287 289 288 288 288 290 292 290 289 289 289 288 287 287 286 286 285 284
267 268 267 266 266 266 266 267 266 265 264 265 267 268 269 267 264 260 258 255 252 252 252 250 247 244 243 243 243 240 234 231 228 226 226 223 216 209 204 203 202 201 204 211 219 225 233 245 254 256 255 252 248 245 244 247 251 255 258 262 265 268 270 273 277 280 283 284 284 285 284 285 286 287 288 287 287 288 289 288 287 286 286 286 285 285
Height
769 769 769 768 768 768 766 766 766 766 765 765 765 765 765 765 764 764 764 764 763 763 762 762 762 762 762 762 761 761 761 761 761 761 760 760 760 759 759 758 758 757 757 756 756 756 755 755 755 755 755 754 754 754 753 753 753 752 752 752 751 751 751 750 750 750 750 750 749 749 749 749 749 748 748 748 747 747 746 746 746 745 745 745 745 745
769 768 767 767 767 766 765 765 765 765 765 764 764 764 763 763 763 762 762 762 762 762 761 761 760 760 760 760 760 760 759 759 759 759 759 758 758 757 757 756 756 755 755 754 754 754 754 753 753 753 753 753 752 752 752 751 751 751 750 750 750 749 749 749 749 748 748 748 748 748 747 747 747 746 746 745 745 745 745 744 744 744 744 744 743 743
768 767 766 766 766 765 764 764 764 765 765 764 764 763 763 762 762 761 761 760 760 760 760 760 759 759 759 758 758 758 758 758 758 757 757 756 756 755 755 754 754 753 753 752 752 752 751 751 751 751 751 751 750 750 750 749 749 749 748 748 748 747 747 747 746 746 746 746 746 745 745 745 744 744 744 744 744 744 743 743 743 743 742 742 742 742
767 766 765 765 764 764 764 764 764 764 764 764 764 763 763 762 761 760 760 759 759 759 759 759 758 758 757 757 756 756 756 756 756 755 755 754 754 754 753 752 752 751 751 750 750 750 749 749 749 749 749 749 748 748 748 747 747 747 746 746 746 745 745 745 744 744 744 744 744 744 743 743 743 743 742 742 742 742 742 741 741 741 740 740 740 740
766 766 765 765 764 763 762 763 763 763 763 763 763 762 762 761 760 759 759 759 758 758 757 757 757 756 756 755 755 754 754 754 754 754 753 753 752 752 751 750 749 749 749 748 748 748 747 747 747 747 747 746 746 746 745 745 745 744 744 744 744 744 743 743 743 743 742 742 742 742 741 741 741 741 741 740 740 740 740 739 739 739 739 739 738 738
766 765 765 764 764 762 762 762 762 762 762 762 761 761 761 760 759 759 758 757 757 756 756 755 755 754 754 754 753 753 753 753 752 752 751 751 750 749 749 748 748 747 746 746 746 746 746 745 745 745 745 744 744 744 744 743 743 743 742 742 742 742 741 741 741 741 740 740 740 740 740 739 739 739 739 739 738 738 738 738 737 737 737 737 736 736
764 764 764 764 763 762 761 761 761 761 761 760 759 759 759 758 758 757 756 756 755 754 754 754 753 753 752 752 751 751 751 751 750 750 749 749 748 748 747 746 746 745 744 744 744 744 744 744 743 743 743 742 742 742 741 741 741 740 740 740 740 740 739 739 739 739 739 739 739 738 738 738 738 737 737 737 736 736 736 736 735 735 735 735 734 734
763 763 763 762 761 760 760 759 760 760 760 759 758 757 756 756 756 755 755 754 754 753 753 752 751 751 750 750 750 749 749 749 748 748 747 747 746 746 745 744 744 743 743 742 742 742 742 741 741 741 740 740 740 739 739 739 739 739 738 738 738 738 738 738 737 737 737 737 737 736 736 736 736 735 735 735 734 734 734 734 734 733 733 733 733 732
762 761 761 761 760 759 758 757 758 758 758 757 756 756 755 754 753 753 753 752 752 752 751 750 749 749 748 748 748 748 747 747 746 746 745 744 744 744 743 742 742 741 741 740 740 740 739 739 739 739 738 738 738 737 737 737 737 736 736 736 736 736 736 736 735 735 735 735 735 735 734 734 734 734 734 733 733 732 732 732 731 731 731 731 731 730
761 760 759 758 758 758 757 755 755 756 756 755 754 754 754 753 752 751 751 750 749 749 749 749 748 747 746 746 746 746 745 745 744 744 743 742 742 741 741 740 739 739 739 738 738 738 737 737 737 737 736 736 736 735 735 735 735 734 734 734 734 734 734 734 734 734 733 733 733 733 733 732 732 732 732 731 731 730 730 730 729 729 729 729 729 729
759 758 758 756 756 756 755 754 753 754 754 753 753 752 752 751 751 750 749 748 747 747 747 747 746 746 745 744 744 744 744 743 742 741 741 740 740 739 739 738 737 737 737 736 736 736 735 735 735 734 734 734 734 733 733 733 733 733 732 732 732 732 732 732 731 731 731 731 731 731 730 730 730 730 729 729 729 729 728 728 727 727 727 727 726 726
757 756 756 755 754 754 753 752 752 752 752 751 751 750 749 749 749 749 748 746 745 745 745 744 744 744 744 743 743 742 742 741 740 739 739 738 738 737 737 736 735 735 735 734 734 734 733 733 733 732 732 732 731 731 731 731 731 730 730 730 730 730 730 729 729 729 729 729 729 729 728 728 728 728 728 727 727 727 726 726 725 725 725 724 724 724
755 754 754 753 752 752 751 751 750 750 749 749 749 748 747 747 748 747 746 744 744 744 744 743 742 741 741 741 741 740 740 739 738 738 737 736 735 735 735 734 734 733 733 733 732 732 731 731 731 730 730 730 729 729 729 729 729 729 728 728 728 728 728 727 727 727 727 727 727 726 726 726 726 726 725 725 725 724 724 724 724 723 723 723 722 722
753 753 752 751 750 749 749 749 749 748 747 747 747 746 746 746 746 745 744 743 742 742 743 741 740 739 739 739 739 739 739 738 736 735 734 734 734 734 733 732 732 731 731 731 730 729 730 729 729 728 728 728 728 727 727 727 727 726 726 726 726 726 725 725 725 725 725 724 724 724 724 724 724 724 723 723 723 722 722 722 721 721 721 721 720 720
751 751 750 749 748 747 747 747 747 746 745 745 745 744 744 744 744 744 743 742 741 741 741 740 738 737 737 737 737 737 737 736 734 733 732 731 731 732 732 731 729 729 729 729 727 727 728 728 727 726 726 726 726 725 725 725 724 724 724 724 724 724 723 723 723 723 723 722 722 722 722 722 721 721 721 721 720 720 720 720 719 719 719 719 719 718
750 749 748 746 745 745 745 745 745 744 743 743 743 743 743 742 742 742 742 741 740 740 740 739 737 736 734 734 735 736 735 734 733 732 731 729 729 730 730 729 728 727 727 726 725 724 725 725 725 724 724 724 724 723 723 723 722 722 722 721 721 721 721 721 720 720 720 720 720 720 720 719 719 719 719 719 719 718 718 718 718 717 717 717 717 716
748 747 746 745 744 742 742 743 743 742 742 742 741 741 741 741 741 741 740 740 739 739 739 739 738 735 733 732 733 734 734 733 731 730 730 728 728 728 729 728 726 725 724 724 723 722 722 723 722 722 722 722 721 721 721 720 720 720 719 719 719 719 719 719 718 718 718 718 718 718 718 717 717 717 717 717 716 716 716 716 715 715 715 715 715 715
745 745 744 743 742 740 740 741 740 740 740 740 739 739 739 739 739 739 739 739 739 738 738 737 736 735 733 731 731 732 734 733 731 729 729 727 726 726 727 726 724 723 722 722 721 720 720 720 720 720 719 719 719 719 719 718 718 718 717 717 717 717 716 716 716 716 716 716 716 716 715 715 715 715 715 714 714 714 714 714 714 713 713 713 713 713
744 743 743 741 740 739 739 738 738 738 738 738 738 737 737 736 737 737 737 737 737 737 736 735 734 733 732 730 729 730 732 732 730 728 727 725 723 723 724 724 722 720 720 719 718 718 718 718 718 718 717 717 717 717 716 716 716 715 715 715 715 714 714 714 714 714 714 714 714 714 713 713 713 713 713 713 712 712 712 712 712 711 711 711 711 711
742 741 740 740 739 737 736 736 736 736 736 735 735 735 734 734 734 734 734 734 734 734 733 733 731 730 729 728 727 728 730 730 729 727 725 723 721 720 721 721 720 718 717 716 715 715 715 715 715 715 715 715 715 714 714 714 714 713 713 713 713 713 713 712 712 712 712 712 711 711 711 711 711 711 711 711 710 710 710 710 710 710 709 709 709 709
740 739 738 739 738 736 734 734 734 734 734 734 734 733 732 732 732 731 731 731 731 730 730 729 728 727 727 726 725 725 727 728 727 725 723 721 719 718 719 719 717 715 714 713 713 713 713 713 713 713 713 713 712 712 712 712 711 711 711 711 711 710 710 710 710 710 710 709 709 709 709 709 709 709 709 709 709 708 708 708 708 708 708 708 708 707
739 737 736 737 737 735 733 732 732 733 733 733 732 731 730 730 729 729 728 729 728 727 726 725 724 723 724 723 722 722 724 724 724 723 722 719 716 714 716 716 715 713 712 711 711 711 711 711 710 710 710 710 710 710 710 709 709 709 709 709 709 708 708 708 708 708 708 707 707 707 707 707 707 707 707 707 707 706 706 706 706 706 706 706 706 705
737 735 734 735 735 734 732 731 731 731 731 731 730 729 729 728 727 726 725 725 725 724 723 722 721 720 719 719 719 719 719 720 720 721 720 717 713 711 714 714 713 711 709 709 709 709 709 709 708 708 708 708 708 708 707 707 707 707 707 707 706 706 706 706 706 705 705 705 705 705 705 705 705 705 705 705 705 704 704 704 704 704 704 704 704 704
735 734 733 732 732 732 731 730 729 729 729 729 728 727 726 726 725 724 723 723 722 721 720 719 718 717 716 716 716 715 715 716 718 718 717 714 711 710 711 711 710 709 707 707 708 708 706 706 706 706 706 705 705 705 705 705 704 704 704 704 704 704 704 704 703 703 703 703 703 703 703 703 703 703 703 703 703 703 703 703 703 702 702 702 702 702
733 731 730 730 730 729 729 728 728 728 727 727 726 725 724 724 723 722 721 720 720 719 719 718 716 714 713 714 713 712 712 713 714 715 714 712 709 708 709 709 709 707 704 705 706 706 705 703 703 704 704 703 702 703 703 703 702 702 702 702 702 702 701 701 701 701 701 701 701 701 701 701 701 701 701 701 701 701 701 701 701 701 700 700 700 700
730 729 729 728 727 727 727 726 726 726 726 725 724 723 723 722 721 720 719 718 717 718 717 716 714 712 711 711 710 709 709 710 710 711 711 710 708 706 705 707 707 705 703 703 704 704 703 701 700 701 701 700 700 700 700 700 700 700 699 699 699 699 699 699 699 699 699 699 699 699 699 699 699 699 699 699 699 699 699 699 699 699 699 699 699 699
728 727 726 725 725 724 724 724 723 723 723 723 723 722 722 721 720 718 716 715 715 716 715 713 711 709 709 709 707 706 707 707 707 707 708 709 707 704 702 704 705 703 702 701 702 702 701 699 698 698 698 697 697 698 698 698 698 697 697 697 697 697 697 697 697 697 697 697 697 698 698 698 698 698 697 697 697 697 697 697 697 697 697 697 697 697
725 724 724 723 722 721 721 720 720 720 720 720 720 720 721 720 718 715 713 713 714 714 712 710 709 708 706 705 704 704 704 704 704 704 705 706 704 701 699 702 702 701 701 700 699 699 699 697 696 695 695 695 695 695 695 695 695 695 694 694 694 694 694 694 695 695 695 695 695 696 696 696 696 695 695 695 695 695 695 695 695 695 695 695 695 695
722 721 720 719 719 718 718 717 716 716 717 717 717 718 718 718 716 713 711 712 713 712 709 708 707 706 705 703 701 701 701 701 700 701 703 704 700 697 698 700 700 699 700 699 698 696 695 694 694 693 692 692 693 693 692 692 692 692 692 692 692 692 692 692 693 693 693 694 694 694 694 694 694 694 694 694 694 694 694 694 694 694 694 694 693 693
719 719 717 716 716 716 715 714 713 713 713 714 714 714 714 714 713 711 709 710 711 710 707 705 705 704 703 702 700 698 697 696 697 699 700 700 697 694 696 698 697 697 699 699 698 695 692 691 691 691 690 690 690 691 691 690 690 690 690 690 690 690 690 690 690 691 691 692 692 692 692 692 692 692 692 692 692 692 692 692 692 692 692 692 691 691
717 716 715 714 714 713 713 712 711 710 710 710 710 710 710 709 709 708 708 708 708 707 705 703 702 702 702 701 699 696 693 693 694 696 696 696 694 692 694 695 695 694 697 698 698 695 691 689 689 689 689 689 689 689 690 689 689 688 688 688 688 688 688 689 689 689 689 690 690 690 690 690 690 690 690 690 690 690 690 690 691 691 690 690 689 689
715 714 713 712 711 711 710 709 709 708 707 706 706 706 705 705 705 705 704 704 704 704 703 701 700 699 699 699 697 694 691 692 693 694 694 694 691 690 692 694 693 692 693 695 696 695 692 689 688 688 689 688 688 689 689 689 688 687 687 687 687 687 687 687 687 687 688 688 688 688 688 688 688 688 688 688 688 689 689 689 689 689 689 688 687 687
713 712 710 710 709 708 708 707 706 705 704 704 703 702 702 702 701 701 701 701 701 700 700 699 698 697 696 696 694 693 691 691 692 692 693 692 690 689 690 691 691 691 691 692 693 693 692 689 688 687 687 687 687 687 687 687 687 687 686 686 686 686 686 686 686 686 686 686 686 686 686 686 686 686 686 686 687 687 687 687 687 687 687 686 686 685
710 709 708 708 707 706 705 704 704 703 702 700 700 699 699 698 698 698 698 698 698 697 697 696 696 695 694 694 692 691 690 690 691 691 691 691 689 688 688 689 689 689 689 690 690 690 689 688 687 687 686 686 686 686 686 686 685 685 685 685 685 685 685 685 685 685 684 684 685 685 685 684 684 684 684 684 684 684 685 685 685 685 685 685 684 684
708 707 706 705 704 704 703 702 701 700 699 697 697 696 695 695 694 694 694 694 694 694 694 694 693 693 692 692 690 689 689 689 690 690 689 689 688 687 687 686 686 687 688 688 688 689 688 686 686 686 686 685 684 684 684 684 684 684 684 684 684 684 684 684 684 684 683 683 683 683 683 683 683 683 683 683 683 683 683 683 683 683 683 683 683 683
706 705 704 704 703 702 700 699 698 697 696 694 694 693 692 692 691 691 691 691 691 691 690 690 690 690 690 689 689 687 686 687 688 688 688 687 686 686 685 684 684 685 687 686 686 686 686 685 684 684 685 684 683 682 682 683 683 683 683 683 683 683 683 682 682 682 682 681 681 681 681 681 681 681 681 681 681 681 681 681 681 681 681 681 681 681
706 704 703 702 701 700 698 697 696 695 694 692 691 690 690 689 688 688 688 688 688 688 687 687 687 687 686 686 685 685 684 684 685 686 685 685 684 684 684 683 683 684 684 684 683 683 684 684 683 682 683 683 682 680 680 681 681 681 681 681 681 681 681 681 681 681 680 680 680 680 680 679 679 679 679 679 679 679 679 679 679 679 679 679 679 679
704 702 700 700 699 698 696 695 693 692 691 690 689 689 688 687 686 685 685 684 684 684 684 684 683 683 683 683 683 682 681 682 682 683 683 682 682 682 681 681 680 681 681 681 681 681 682 682 682 681 680 680 679 679 679 680 680 680 680 680 680 680 680 680 680 679 679 679 678 678 678 678 678 677 677 677 677 677 677 676 676 677 676 676 676 676
702 700 698 697 696 696 694 693 691 690 689 689 687 686 686 685 684 683 683 682 681 681 680 680 680 680 680 680 679 679 679 679 679 679 679 679 679 679 679 679 678 678 679 679 679 679 680 680 679 679 678 678 677 677 678 678 679 679 679 679 678 678 678 678 678 678 678 677 677 676 676 676 676 676 675 675 675 675 674 674 674 674 674 674 674 674
699 698 696 695 694 694 693 691 689 688 688 687 685 684 683 683 682 681 680 680 679 678 678 677 677 677 677 677 676 676 676 676 676 676 676 676 676 676 676 676 676 676 676 677 677 677 678 677 677 676 676 676 676 676 676 677 677 677 677 677 677 676 676 676 676 676 676 676 675 675 674 674 674 674 674 674 673 673 673 673 672 672 672 672 672 671
697 695 694 693 692 691 690 689 688 687 686 685 683 682 681 680 679 679 678 677 677 676 675 675 675 674 674 673 673 673 673 673 673 673 673 673 673 673 673 673 674 674 674 674 674 675 675 675 675 675 675 675 675 675 675 675 675 676 676 676 675 674 674 674 674 674 674 674 674 674 673 673 673 673 672 672 672 671 671 671 670 670 670 670 670 669
695 693 692 691 690 689 688 687 686 685 684 683 681 680 679 678 678 677 675 674 674 673 673 673 673 672 671 671 670 670 669 669 669 670 670 670 670 670 670 670 671 672 672 672 672 672 673 673 673 673 673 674 674 674 673 673 674 674 674 674 674 673 673 673 673 673 673 672 672 672 672 672 671 671 671 670 670 669 669 669 669 668 668 668 668 668
692 690 689 688 687 686 685 684 684 682 681 680 679 677 676 676 675 674 673 672 671 670 670 670 670 670 669 668 667 667 666 666 666 666 667 667 667 667 667 668 668 669 670 670 670 670 670 671 671 671 671 672 672 672 672 671 672 672 673 673 673 673 672 671 671 671 671 671 671 671 671 670 670 669 669 669 668 667 667 667 667 666 666 666 666 665
689 688 687 686 684 684 683 682 680 679 679 677 676 674 673 673 672 670 669 669 668 668 669 668 668 668 666 665 664 664 663 663 663 663 664 664 664 665 665 665 666 667 668 668 668 668 669 669 669 669 669 670 671 671 670 670 670 670 671 671 671 671 671 670 670 670 670 670 670 669 669 669 668 668 667 666 665 665 665 664 664 664 664 664 664 664
686 685 684 683 681 680 679 678 677 676 675 674 673 671 670 669 669 668 668 667 666 666 666 666 666 665 663 662 662 662 661 661 660 661 661 662 662 663 663 664 664 664 665 665 665 666 667 667 667 667 668 669 669 669 669 669 669 669 669 669 669 669 669 669 669 669 669 669 668 668 668 667 667 666 665 664 663 663 663 663 662 662 662 662 662 662
684 682 681 679 678 677 675 674 674 673 672 671 669 669 668 667 667 666 666 665 665 664 664 664 664 663 661 660 660 660 659 659 659 659 659 659 660 660 661 662 662 663 663 663 664 664 664 665 665 666 667 667 667 667 667 667 668 668 667 668 668 668 667 667 667 668 667 667 667 666 666 666 665 664 663 662 661 661 661 660 660 660 660 660 660 660
681 680 678 677 676 674 673 672 671 670 669 668 667 666 666 665 665 664 664 663 662 662 661 661 660 660 659 658 658 658 658 657 657 657 657 658 658 658 659 660 660 661 661 662 662 663 663 664 664 665 665 666 666 665 665 666 666 666 666 666 666 666 666 666 666 666 666 666 665 665 664 664 664 663 661 661 660 659 659 659 659 659 659 659 659 659
679 678 676 675 674 673 671 670 669 668 667 666 665 664 664 663 663 662 661 660 660 659 659 658 658 657 656 656 656 656 655 655 655 655 656 656 656 657 658 658 659 659 660 660 661 661 662 662 663 663 664 664 664 664 664 664 664 665 665 665 665 665 665 664 664 664 664 664 664 664 663 663 662 661 660 659 659 658 657 657 657 657 657 657 657 657
677 675 674 673 672 671 669 669 668 666 665 664 663 662 661 660 660 660 659 658 658 657 657 656 656 655 654 654 654 654 654 654 653 654 654 655 655 656 656 657 658 659 659 660 660 661 661 661 661 662 662 662 663 663 662 663 663 663 664 664 664 664 663 663 663 663 663 663 662 662 662 661 661 660 660 659 658 656 656 655 655 655 655 655 655 655
674 673 672 671 670 669 667 666 665 664 663 661 660 659 658 657 657 657 656 656 655 655 654 654 654 653 652 652 651 652 652 652 652 652 653 653 654 654 655 656 657 658 659 659 659 660 660 660 660 660 660 660 661 661 661 661 662 662 662 662 662 662 662 662 661 661 661 661 661 660 660 660 659 659 659 658 657 656 654 654 653 653 654 654 654 653
672 671 669 669 667 666 664 663 662 661 660 659 657 656 656 655 654 654 654 654 653 653 652 652 651 651 650 649 649 649 649 650 650 650 651 652 653 653 654 655 655 656 657 658 659 659 659 659 659 658 658 658 659 659 660 660 660 661 661 661 661 661 661 660 660 660 660 660 659 659 659 659 659 658 658 658 657 655 654 652 651 651 652 652 652 651